Date,TemperatureHighF,TemperatureAvgF,TemperatureLowF,DewpointHighF,DewpointAvgF,DewpointLowF,HumidityHigh,HumidityAvg,HumidityLow,PressureMaxIn,PressureMinIn,WindSpeedMaxMPH,WindSpeedAvgMPH,GustSpeedMaxMPH,PrecipitationSumIn
2013-1-29,40.1,36.3,33.2,38.5,34.2,31.6,94,92,87,29.48,29.33,14,5,17,0.10
2013-1-30,33.2,25.7,15.7,31.6,19.8,10.6,94,79,63,29.86,29.38,22,8,28,0.01
2013-1-31,21.0,15.9,5.6,16.9,7.7,-1.0,86,70,53,30.37,29.82,23,5,25,0.00
2013-2-1,27.5,16.8,3.2,15.2,7.6,-2.0,81,67,54,30.37,30.00,12,2,15,0.00
2013-2-2,49.9,37.8,25.7,34.5,26.6,14.2,76,64,52,30.06,29.95,13,3,18,0.00
2013-2-3,51.0,40.8,29.3,29.6,24.4,16.3,79,54,31,30.14,29.67,13,3,18,0.00
2013-2-4,46.5,37.1,22.1,30.6,25.9,18.0,86,65,47,29.86,29.61,14,4,20,0.00
2013-2-5,59.2,38.4,21.6,32.9,25.9,18.0,89,65,32,29.93,29.76,14,2,16,0.00
2013-2-6,62.0,49.0,30.3,47.0,35.2,22.7,76,60,39,29.93,29.67,11,3,19,0.00
2013-2-7,55.0,44.1,31.0,45.9,37.8,25.7,94,79,60,30.07,29.66,17,6,20,0.44
2013-2-8,44.3,33.6,28.1,30.9,26.9,23.6,87,77,57,30.20,30.04,10,3,16,0.00
2013-2-9,51.9,38.7,29.4,38.4,31.9,26.3,90,78,54,30.05,29.54,15,6,23,0.00
2013-2-10,48.6,43.1,37.2,44.7,33.5,23.5,95,71,48,29.77,29.29,25,8,31,0.05
2013-2-11,45.7,36.0,29.0,25.7,21.8,18.1,72,57,35,30.03,29.78,17,4,18,0.00
2013-2-12,42.2,31.5,22.2,27.7,21.6,16.5,84,68,44,30.04,29.82,4,0,6,0.00
2013-2-13,56.0,38.5,23.0,28.3,23.0,17.7,82,58,28,29.82,29.66,15,2,19,0.00
2013-2-14,49.2,40.6,31.3,32.9,26.3,21.2,75,58,36,30.06,29.68,15,4,20,0.00
2013-2-15,37.6,29.3,18.6,27.1,16.7,7.5,89,61,36,30.26,30.06,21,6,23,0.00
2013-2-16,36.8,29.8,19.7,23.3,19.6,15.7,88,68,43,30.18,29.90,10,2,14,0.03
2013-2-17,59.9,42.6,24.8,34.3,25.7,15.9,71,53,35,29.89,29.45,15,3,19,0.00
2013-2-18,56.9,43.7,26.4,44.4,29.7,15.8,73,58,41,29.95,29.30,26,8,29,0.00
2013-2-19,35.6,26.8,20.0,16.3,8.0,-1.0,74,48,22,30.22,29.95,14,4,21,0.00
2013-2-20,26.1,21.1,14.6,12.7,6.6,1.4,60,53,44,30.24,30.03,6,2,13,0.00
2013-2-21,26.4,23.3,19.5,24.3,19.0,12.3,92,84,61,30.03,29.62,11,2,17,0.00
2013-2-22,26.4,20.6,10.9,21.0,15.9,6.2,91,82,70,29.97,29.67,10,2,16,0.27
2013-2-23,33.5,19.2,2.2,22.1,12.4,-2.0,84,75,61,29.97,29.82,9,1,12,0.10
2013-2-24,44.5,32.4,16.7,28.5,22.7,13.5,89,69,48,29.86,29.74,9,1,11,0.05
2013-2-25,36.2,33.5,29.5,31.9,27.1,23.1,94,78,66,29.80,29.57,12,4,20,0.04
2013-2-26,33.2,31.8,30.1,31.9,30.3,28.5,95,94,93,29.74,29.50,17,7,25,0.11
2013-2-27,39.9,32.6,27.5,28.3,26.0,23.6,93,78,56,29.94,29.72,18,7,24,0.18
2013-2-28,32.5,30.8,29.1,26.0,24.0,22.4,78,76,72,30.08,29.93,16,5,19,0.01
2013-3-1,29.7,27.2,25.4,22.4,18.8,17.1,77,70,61,30.20,30.07,14,6,20,0.00
2013-3-2,34.3,27.8,22.4,20.7,17.7,14.2,74,66,53,30.24,30.03,9,2,14,0.00
2013-3-3,43.5,35.2,25.8,29.8,24.8,19.2,77,66,56,30.02,29.54,13,3,18,0.00
2013-3-4,51.3,41.2,35.2,35.6,31.1,28.0,82,68,53,29.83,29.48,16,4,24,0.00
2013-3-5,37.0,32.1,26.6,31.0,19.3,14.5,80,59,48,30.23,29.83,25,10,29,0.00
2013-3-6,37.5,28.7,18.1,23.0,19.0,13.2,83,67,53,30.30,30.12,12,2,16,0.00
2013-3-7,52.2,37.6,24.5,34.9,26.4,19.1,80,65,46,30.12,29.94,13,4,17,0.00
2013-3-8,60.9,49.7,37.2,46.6,38.0,28.2,73,64,51,30.00,29.74,16,6,20,0.00
2013-3-9,55.9,52.0,47.4,54.7,46.9,40.0,96,84,58,29.74,29.39,13,2,25,1.11
2013-3-10,52.0,36.0,25.6,50.6,33.4,20.0,95,90,79,29.81,29.37,21,8,26,0.02
2013-3-11,39.6,28.6,22.1,21.9,18.8,15.2,80,68,37,29.89,29.77,16,5,20,0.00
2013-3-12,46.7,36.9,29.8,28.7,23.0,17.9,79,59,32,30.20,29.87,18,5,29,0.00
2013-3-13,46.2,32.9,19.5,24.0,20.0,14.2,87,62,30,30.34,30.14,7,1,12,0.00
2013-3-14,72.5,51.0,34.1,41.7,32.5,23.2,70,51,29,30.14,29.87,11,2,16,0.00
2013-3-15,84.7,61.1,36.3,46.9,38.2,31.5,85,50,17,29.91,29.46,13,2,19,0.00
2013-3-16,58.9,41.4,34.1,43.6,33.8,26.5,88,75,55,29.91,29.51,15,7,23,0.00
2013-3-17,37.3,33.8,31.3,32.5,29.3,25.7,93,84,73,29.91,29.61,13,3,17,0.16
2013-3-18,54.2,41.7,33.8,34.6,27.0,16.4,94,62,26,29.91,29.59,17,6,22,0.00
2013-3-19,40.1,32.5,25.0,37.7,25.9,15.4,93,77,48,30.12,29.90,4,0,7,0.14
2013-3-20,41.1,31.6,23.5,33.4,14.9,8.1,93,52,27,30.28,29.98,20,5,22,0.00
2013-3-21,31.5,28.4,24.7,26.1,18.8,11.3,92,68,48,29.98,29.75,14,3,20,0.00
2013-3-22,33.5,31.1,27.9,30.9,28.8,25.8,93,91,89,29.86,29.79,5,1,9,0.02
2013-3-23,36.5,32.7,29.5,31.2,29.2,27.0,95,87,69,29.89,29.73,10,3,16,0.07
2013-3-24,29.5,27.4,23.6,27.9,23.3,15.2,98,85,65,29.98,29.73,16,8,24,0.10
2013-3-25,32.5,27.5,21.8,23.7,20.0,14.1,82,73,64,30.22,29.97,21,7,23,0.01
2013-3-26,36.2,28.0,17.3,20.8,18.3,13.3,85,68,48,30.29,30.15,6,2,11,0.03
2013-3-27,49.6,38.0,26.6,32.9,26.0,18.9,76,63,44,30.16,30.02,14,4,18,0.00
2013-3-28,62.9,47.7,30.7,41.2,34.5,26.6,86,62,38,30.05,29.94,7,1,12,0.00
2013-3-29,68.3,55.4,41.3,47.0,42.3,36.8,88,64,32,30.02,29.88,11,2,16,0.02
2013-3-30,69.1,59.0,51.3,55.6,49.7,42.5,93,73,51,29.88,29.66,13,2,19,0.14
2013-3-31,63.4,54.7,43.5,45.6,38.2,27.5,86,57,29,29.81,29.75,14,3,19,0.01
2013-4-1,48.8,39.5,31.8,34.1,21.0,13.6,82,49,30,30.15,29.81,14,5,21,0.00
2013-4-2,51.4,37.7,26.0,24.8,20.0,15.9,73,51,27,30.19,30.08,9,1,15,0.00
2013-4-3,49.1,39.4,29.1,29.4,24.6,22.1,79,57,36,30.20,30.08,12,1,16,0.00
2013-4-4,63.1,46.1,30.7,33.1,29.0,24.4,82,55,28,30.08,29.89,10,1,12,0.00
2013-4-5,56.0,40.5,34.3,42.7,33.7,29.9,89,77,61,30.01,29.93,2,0,3,0.00
2013-11-29,53.2,42.9,29.7,29.3,25.3,21.4,71,51,34,30.31,30.04,13,2,17,0.00
2013-11-30,55.6,41.6,32.4,37.2,31.5,24.5,90,69,49,30.04,29.90,10,1,14,0.00
2013-12-1,56.2,39.9,26.4,38.6,31.8,24.3,94,75,43,29.97,29.69,3,0,7,0.00
2013-12-2,54.7,43.9,36.3,43.3,38.5,32.9,94,82,63,29.69,29.41,10,1,16,0.00
2013-12-3,59.5,46.2,39.6,45.4,40.8,35.7,95,83,57,29.43,29.33,9,1,12,0.01
2013-12-4,39.5,30.3,20.0,36.4,25.8,9.2,95,83,60,29.94,29.35,15,6,23,0.03
2013-12-5,20.0,16.8,13.5,11.9,5.4,2.2,76,60,53,30.29,29.95,17,6,22,0.00
2013-12-6,16.5,12.7,7.6,3.4,-1.7,-4.0,62,51,41,30.56,30.26,16,6,22,0.00
2013-12-7,19.9,12.0,1.1,4.3,-0.4,-5.0,74,57,40,30.64,30.24,12,3,15,0.00
2013-12-8,22.5,19.6,14.6,19.7,14.1,3.8,89,80,50,30.23,29.85,11,2,14,0.00
2013-12-9,15.2,9.5,4.7,10.7,1.8,-2.0,85,71,51,30.32,30.07,11,2,15,0.00
2013-12-10,38.6,23.0,5.8,19.3,11.6,-1.0,77,62,43,30.22,30.04,6,1,14,0.02
2013-12-11,26.6,19.4,8.6,20.9,8.1,-1.0,82,62,35,30.51,30.07,17,4,24,0.00
2013-12-12,46.5,27.9,8.6,22.0,13.3,0.5,74,56,34,30.48,29.99,13,3,17,0.00
2013-12-13,38.8,34.1,26.9,34.4,30.2,21.8,95,86,75,29.98,29.67,10,2,15,0.05
2013-12-14,32.5,25.0,14.9,31.2,20.3,10.6,95,83,65,30.11,29.77,16,5,24,0.01
2013-12-15,54.7,33.7,14.1,31.2,22.5,10.1,87,66,37,30.10,29.80,7,1,11,0.00
2013-12-16,63.4,41.4,26.6,33.4,26.1,20.0,82,58,26,30.00,29.79,9,1,15,0.00
2013-12-17,48.5,33.7,23.2,32.0,23.1,17.9,90,68,35,30.17,29.99,13,2,15,0.00
2013-12-18,66.8,46.9,25.4,36.4,29.8,18.2,76,54,27,30.06,29.58,18,4,29,0.00
2013-12-19,56.3,50.3,35.6,49.0,42.5,31.2,86,75,58,29.57,29.44,12,3,18,0.00
2013-12-20,35.5,21.5,17.7,31.4,18.4,14.7,93,88,84,29.84,29.56,14,5,22,0.00
2013-12-21,26.6,23.0,20.0,24.0,19.4,15.9,91,86,82,29.79,29.50,11,3,16,0.00
2013-12-22,24.4,19.1,5.8,20.4,14.7,1.7,91,83,74,30.27,29.64,15,4,17,0.00
2013-12-23,13.8,9.3,4.5,5.1,2.6,-2.0,85,74,62,30.54,30.26,8,2,12,0.00
2013-12-24,29.3,17.7,3.5,26.6,11.9,-2.0,92,78,61,30.48,30.05,10,3,19,0.01
2013-12-25,40.5,30.3,21.1,30.1,24.4,17.5,93,80,58,30.22,30.11,10,2,14,0.12
2013-12-26,48.5,32.3,20.0,30.7,23.9,17.0,89,73,46,30.20,30.02,19,2,23,0.06
2013-12-27,56.3,36.8,22.2,32.9,26.6,19.1,95,70,34,30.19,30.01,9,1,13,0.00
2013-12-28,56.4,42.0,32.9,34.4,30.2,27.4,81,65,37,30.01,29.69,14,3,24,0.00
2013-12-29,37.0,17.4,6.2,29.8,4.5,-7.0,79,58,32,30.24,29.81,21,7,28,0.00
2013-12-30,35.3,19.7,5.6,19.5,6.7,-1.0,80,58,34,30.20,30.04,10,2,15,0.00
2013-12-31,53.3,33.9,15.9,28.4,19.4,11.6,87,60,26,30.19,29.87,28,3,32,0.00
2014-1-1,35.0,17.9,7.4,22.7,12.0,1.4,85,78,60,30.24,29.86,20,5,25,0.00
2014-1-2,18.0,8.6,1.1,8.5,1.1,-5.0,81,71,61,30.38,30.24,13,2,14,0.00